This demonstration page uses our WeatherBlox Daily Observations layout. Learn more.

Left ArrowRight Arrow

39.51506, -84.39828

Hourly Observations for October 27, 2021

Temp ( °F °C ) Dew Point ( °F °C ) Humidity (%) Winds ( mph kmh ) Pressure ( in mb ) Visibility ( mi km ) Precip ( " mm )
12:15 am 00:15 Clear 39 3.9 35 1.7 86 86 NNW 3 6 30.05 1018 10 16 N/A
12:35 am 00:35 Clear 40 4.4 37 2.5 88 88 NNE 6 9 30.05 1018 10 16 N/A
12:55 am 00:55 Clear 39 3.9 36 2.3 89 89 NNE 5 7 30.05 1018 10 16 N/A
1:15 am 01:15 Clear 39 4 36 2.1 88 88 NE 6 9 30.05 1018 10 16 N/A
1:35 am 01:35 Clear 40 4.3 36 2.4 88 88 NNE 5 7 30.05 1018 10 16 N/A
1:55 am 01:55 Clear 39 3.7 37 2.7 93 93 N N/A 30.06 1018 10 16 N/A
2:15 am 02:15 Clear 38 3.2 36 2.3 94 94 N N/A 30.06 1018 10 16 N/A
2:35 am 02:35 Clear 35 1.8 34 1.2 96 96 N N/A 30.06 1018 10 16 N/A
2:55 am 02:55 Clear 36 2.1 35 1.5 96 96 N N/A 30.07 1018 10 16 N/A
3:15 am 03:15 Clear 34 1.1 33 0.7 97 97 N N/A 30.06 1018 10 16 N/A
3:35 am 03:35 Clear 36 2.2 36 2 99 99 N N/A 30.06 1018 10 16 N/A
3:55 am 03:55 Clear 35 1.9 35 1.8 99 99 N N/A 30.06 1018 7 11 N/A
4:15 am 04:15 Clear 33 0.7 33 0.5 99 99 N 5 7 30.06 1018 10 16 N/A
4:35 am 04:35 Clear 34 1.2 34 1 99 99 N N/A 30.06 1018 10 16 N/A
4:55 am 04:55 Clear with Mist and Fog 34 0.9 33 0.7 99 99 N N/A 30.06 1018 3 5 N/A
5:15 am 05:15 Mostly Cloudy with Mist and Fog 32 undefined 32 -0.2 99 99 N N/A 30.08 1018 1 2 N/A
5:35 am 05:35 Cloudy with Fog 33 0.4 32 0.2 99 99 N N/A 30.07 1018 1 1 N/A
5:55 am 05:55 Partly Cloudy 33 0.4 32 0.2 99 99 N N/A 30.07 1018 10 16 N/A
6:15 am 06:15 Partly Cloudy 33 0.5 33 0.3 99 99 N N/A 30.08 1019 10 16 N/A
6:35 am 06:35 Partly Cloudy 33 0.3 32 0.1 99 99 NE 3 6 30.08 1019 10 16 N/A
6:55 am 06:55 Partly Cloudy with Mist and Fog 32 0.1 32 -0.1 99 99 N N/A 30.08 1019 3 5 N/A
7:15 am 07:15 Cloudy with Fog 32 -0.1 32 -0.2 99 99 N N/A 30.09 1019 N/A N/A
7:35 am 07:35 Cloudy with Freezing Fog 31 -0.3 31 -0.5 99 99 N N/A 30.10 1019 N/A N/A
7:55 am 07:55 Mostly Cloudy with Freezing Fog 31 -0.3 31 -0.5 99 99 N N/A 30.10 1019 N/A N/A
8:15 am 08:15 Cloudy with Fog 32 undefined 32 -0.2 99 99 N N/A 30.10 1019 N/A N/A
8:35 am 08:35 Cloudy with Fog 32 0.2 32 undefined 99 99 N N/A 30.10 1019 N/A N/A
8:55 am 08:55 Cloudy with Fog 33 0.4 32 0.2 99 99 N N/A 30.10 1019 N/A N/A
9:15 am 09:15 Cloudy with Fog 37 2.6 36 2.4 99 99 ENE 6 9 30.11 1020 N/A N/A
9:35 am 09:35 Mostly Cloudy with Mist and Fog 38 3.2 37 3 99 99 N N/A 30.11 1020 2 3 N/A
9:55 am 09:55 Partly Cloudy 39 4 39 3.9 99 99 NE 3 6 30.11 1020 10 16 N/A
10:15 am 10:15 Sunny 41 5.1 40 4.5 96 96 ENE 3 6 30.11 1020 10 16 N/A
10:35 am 10:35 Sunny 43 5.9 39 3.9 87 87 ENE 5 7 30.11 1020 10 16 N/A
10:55 am 10:55 Sunny 45 7 40 4.2 83 83 E 3 6 30.11 1020 10 16 N/A
11:15 am 11:15 Sunny 46 7.9 42 5.4 84 84 ENE 6 9 30.09 1019 10 16 N/A
11:35 am 11:35 Sunny 47 8.3 40 4.7 78 78 ENE 5 7 30.10 1019 10 16 N/A
11:55 am 11:55 Mostly Cloudy 50 10.1 38 3.2 63 63 SE 5 7 30.09 1019 10 16 N/A
12:15 pm 12:15 Partly Cloudy 51 10.8 38 3.6 61 61 E 7 11 30.08 1019 10 16 N/A
12:35 pm 12:35 Partly Cloudy 52 11.1 38 3.6 60 60 E 10 17 30.07 1018 10 16 N/A
12:55 pm 12:55 Partly Cloudy 51 10.8 38 3.4 61 61 E 7 11 30.06 1018 10 16 N/A
1:15 pm 13:15 Sunny 52 11.2 38 3.6 60 60 NE 5 7 30.05 1017 10 16 N/A
1:35 pm 13:35 Sunny 53 11.5 38 3.6 59 59 ENE 8 13 30.04 1017 10 16 N/A
1:55 pm 13:55 Sunny 53 11.9 39 4 59 59 NE 7 11 30.02 1017 10 16 N/A
2:15 pm 14:15 Sunny 55 12.5 40 4.3 58 58 ENE 6 9 30.01 1016 10 16 N/A
2:35 pm 14:35 Sunny 55 12.6 40 4.4 58 58 ENE 9 15 30.00 1016 10 16 N/A
2:55 pm 14:55 Sunny 55 12.7 40 4.3 57 57 E 6 9 29.99 1016 10 16 N/A
3:15 pm 15:15 Sunny 55 12.7 40 4.6 58 58 E 8 13 29.97 1015 10 16 N/A
3:35 pm 15:35 Sunny 55 12.9 41 5 59 59 E 8 13 29.96 1015 10 16 N/A
3:55 pm 15:55 Sunny 55 12.6 41 5 60 60 E 8 13 29.96 1015 10 16 N/A
4:15 pm 16:15 Partly Cloudy 55 12.6 42 5.4 62 62 E 12 19 29.96 1015 10 16 N/A
4:35 pm 16:35 Mostly Cloudy 55 12.6 42 5.6 63 63 ESE 10 17 29.96 1015 10 16 N/A
4:55 pm 16:55 Mostly Cloudy 54 12 42 5.8 66 66 E 14 22 29.95 1014 10 16 N/A
5:15 pm 17:15 Partly Cloudy 52 10.9 42 5.6 70 70 E 12 19 29.96 1014 10 16 N/A
5:35 pm 17:35 Mostly Cloudy 51 10.6 42 5.8 72 72 E 9 15 29.96 1014 10 16 N/A
5:55 pm 17:55 Cloudy 51 10.4 42 5.8 73 73 E 8 13 29.96 1014 10 16 N/A
6:15 pm 18:15 Cloudy 51 10.3 43 6 75 75 ENE 9 15 29.95 1014 10 16 N/A
6:35 pm 18:35 Cloudy 51 10.3 43 6.1 75 75 SE 9 15 29.95 1014 10 16 N/A
6:55 pm 18:55 Cloudy 50 10.2 43 6.1 76 76 E 10 17 29.95 1014 10 16 N/A
7:15 pm 19:15 Cloudy 50 10.1 43 6.1 76 76 ESE 10 17 29.96 1015 10 16 N/A
7:35 pm 19:35 Cloudy 50 9.9 43 6.2 78 78 ESE 8 13 29.97 1015 10 16 N/A
7:55 pm 19:55 Cloudy 50 9.9 43 6.2 78 78 SE 7 11 29.99 1016 10 16 N/A
8:15 pm 20:15 Cloudy 50 9.9 43 6.3 79 79 ESE 6 9 29.98 1015 10 16 N/A
8:35 pm 20:35 Cloudy 50 9.8 44 6.4 80 80 E 9 15 29.97 1015 10 16 N/A
8:55 pm 20:55 Cloudy 50 9.8 44 6.5 80 80 E 9 15 29.96 1015 10 16 N/A
9:15 pm 21:15 Cloudy 49 9.7 44 6.6 81 81 E 13 20 29.95 1014 10 16 N/A
9:35 pm 21:35 Cloudy 49 9.6 44 6.5 81 81 E 9 15 29.94 1014 10 16 N/A
9:55 pm 21:55 Cloudy 49 9.6 44 6.6 82 82 E 9 15 29.93 1014 10 16 N/A
10:15 pm 22:15 Cloudy 49 9.6 44 6.7 82 82 E 9 15 29.92 1013 10 16 N/A
10:35 pm 22:35 Cloudy 49 9.5 44 6.7 83 83 E 9 15 29.91 1013 10 16 N/A
10:55 pm 22:55 Cloudy 49 9.5 44 6.7 83 83 E 13 20 29.90 1013 10 16 N/A
11:15 pm 23:15 Cloudy 49 9.6 44 6.9 83 83 E 8 13 29.90 1013 10 16 N/A
11:35 pm 23:35 Cloudy 49 9.6 44 6.9 83 83 E 10 17 29.89 1012 10 16 N/A
11:55 pm 23:55 Cloudy 49 9.6 45 7 84 84 ESE 10 17 29.89 1012 10 16 N/A

Powered by AerisWeather